• In Austria
  • List of Countries
  • For 7 days
  • Water Temperature
  • Satellite Maps
  • Weather Map
  • News
  • Weather Widgets
  • user-avatar
    Login

    Hourly Weather Bagrinovo

    Today, 21 April, Saturday

    Time Temperature Precipitation Wind Pressure Humidity
    00:00 +8°C° 0 mm 4 mps 743 mmHg 77%
    01:00 +8°C° 0 mm 4 mps 743 mmHg 80%
    02:00 +8°C° 0 mm 4 mps 742 mmHg 83%
    03:00 +7°C° 0 mm 4 mps 741 mmHg 83%
    04:00 +7°C° 0 mm 5 mps 740 mmHg 83%
    05:00 +7°C° 0 mm 5 mps 740 mmHg 83%
    06:00 +9°C° 0 mm 6 mps 739 mmHg 77%
    07:00 +10°C° 0 mm 7 mps 738 mmHg 71%
    08:00 +12°C° 0 mm 7 mps 737 mmHg 65%
    09:00 +15°C° 0 mm 8 mps 736 mmHg 62%
    10:00 +16°C° 0 mm 8 mps 735 mmHg 60%
    11:00 +18°C° 0 mm 9 mps 734 mmHg 57%
    12:00 +18°C° 0.1 mm 9 mps 734 mmHg 54%
    13:00 +19°C° 0.1 mm 10 mps 733 mmHg 52%
    14:00 +19°C° 0.1 mm 11 mps 733 mmHg 50%
    15:00 +18°C° 0.1 mm 10 mps 733 mmHg 50%
    16:00 +17°C° 0.1 mm 9 mps 733 mmHg 50%
    17:00 +15°C° 0.1 mm 9 mps 734 mmHg 50%
    18:00 +13°C° 0 mm 8 mps 734 mmHg 50%
    19:00 +11°C° 0 mm 7 mps 735 mmHg 51%
    20:00 +10°C° 0 mm 6 mps 736 mmHg 52%
    21:00 +9°C° 0 mm 7 mps 736 mmHg 54%
    22:00 +8°C° 0 mm 7 mps 736 mmHg 55%
    23:00 +6°C° 0 mm 7 mps 737 mmHg 57%

    Tomorrow, 22 April, Sunday

    Time Temperature Precipitation Wind Pressure Humidity
    00:00 +5°C° 0 mm 6 mps 737 mmHg 60%
    01:00 +5°C° 0 mm 6 mps 737 mmHg 63%
    02:00 +4°C° 0 mm 6 mps 737 mmHg 66%
    03:00 +4°C° 0 mm 6 mps 738 mmHg 68%
    04:00 +4°C° 0 mm 6 mps 738 mmHg 69%
    05:00 +4°C° 0 mm 6 mps 738 mmHg 71%
    06:00 +5°C° 0 mm 7 mps 738 mmHg 67%
    07:00 +6°C° 0 mm 7 mps 738 mmHg 63%
    08:00 +7°C° 0 mm 8 mps 738 mmHg 59%
    09:00 +9°C° 0.1 mm 8 mps 738 mmHg 55%
    10:00 +10°C° 0.1 mm 8 mps 738 mmHg 51%
    11:00 +11°C° 0.1 mm 8 mps 738 mmHg 47%
    12:00 +11°C° 0.1 mm 8 mps 738 mmHg 46%
    13:00 +11°C° 0.1 mm 8 mps 738 mmHg 46%
    14:00 +11°C° 0.1 mm 8 mps 738 mmHg 45%
    15:00 +11°C° 0.2 mm 7 mps 738 mmHg 47%
    16:00 +11°C° 0.2 mm 7 mps 739 mmHg 48%
    17:00 +11°C° 0.2 mm 7 mps 739 mmHg 50%
    18:00 +9°C° 0.1 mm 5 mps 739 mmHg 57%
    19:00 +8°C° 0.1 mm 4 mps 740 mmHg 63%
    20:00 +8°C° 0.1 mm 3 mps 740 mmHg 70%
    21:00 +7°C° 0 mm 2 mps 740 mmHg 74%
    22:00 +6°C° 0 mm 2 mps 740 mmHg 78%
    23:00 +6°C° 0 mm 2 mps 741 mmHg 82%

    Day after tomorrow, 23 April, Monday

    Time Temperature Precipitation Wind Pressure Humidity
    00:00 +5°C° 0 mm 2 mps 741 mmHg 84%
    01:00 +5°C° 0 mm 2 mps 741 mmHg 86%
    02:00 +4°C° 0 mm 2 mps 741 mmHg 88%
    03:00 +4°C° 0 mm 2 mps 742 mmHg 89%
    04:00 +3°C° 0 mm 2 mps 742 mmHg 91%
    05:00 +3°C° 0 mm 2 mps 742 mmHg 92%
    06:00 +4°C° 0 mm 2 mps 743 mmHg 84%
    07:00 +5°C° 0 mm 2 mps 743 mmHg 77%
    08:00 +6°C° 0 mm 2 mps 743 mmHg 70%
    09:00 +7°C° 0 mm 2 mps 743 mmHg 65%
    10:00 +8°C° 0 mm 2 mps 743 mmHg 60%
    11:00 +8°C° 0 mm 2 mps 743 mmHg 54%
    12:00 +9°C° 0 mm 2 mps 743 mmHg 51%
    13:00 +11°C° 0 mm 1 mps 743 mmHg 48%
    14:00 +12°C° 0 mm 1 mps 743 mmHg 46%
    15:00 +12°C° 0 mm 1 mps 743 mmHg 46%
    16:00 +12°C° 0 mm 1 mps 743 mmHg 46%
    17:00 +12°C° 0 mm 1 mps 742 mmHg 47%
    18:00 +10°C° 0 mm 1 mps 742 mmHg 52%
    19:00 +9°C° 0 mm 1 mps 742 mmHg 57%
    20:00 +7°C° 0 mm 2 mps 742 mmHg 62%
    21:00 +6°C° 0 mm 2 mps 742 mmHg 62%
    22:00 +5°C° 0 mm 3 mps 741 mmHg 63%
    23:00 +5°C° 0 mm 3 mps 741 mmHg 64%

    24 April, Tuesday

    Time Temperature Precipitation Wind Pressure Humidity
    00:00 +5°C° 0.2 mm 4 mps 741 mmHg 65%
    01:00 +5°C° 0.2 mm 4 mps 741 mmHg 67%
    02:00 +5°C° 0.2 mm 4 mps 741 mmHg 69%
    03:00 +5°C° 0.2 mm 4 mps 740 mmHg 73%
    04:00 +5°C° 0.2 mm 4 mps 740 mmHg 78%
    05:00 +4°C° 0.2 mm 4 mps 739 mmHg 82%
    06:00 +5°C° 0.1 mm 4 mps 739 mmHg 83%
    07:00 +5°C° 0.1 mm 4 mps 738 mmHg 83%
    08:00 +6°C° 0.1 mm 5 mps 738 mmHg 83%
    09:00 +6°C° 0.3 mm 4 mps 738 mmHg 84%
    10:00 +6°C° 0.3 mm 4 mps 738 mmHg 86%
    11:00 +7°C° 0.3 mm 3 mps 738 mmHg 88%
    12:00 +8°C° 0.2 mm 3 mps 738 mmHg 86%
    13:00 +9°C° 0.2 mm 3 mps 738 mmHg 84%
    14:00 +10°C° 0.2 mm 3 mps 738 mmHg 82%
    15:00 +10°C° 0.1 mm 3 mps 738 mmHg 78%
    16:00 +11°C° 0.1 mm 4 mps 738 mmHg 74%
    17:00 +11°C° 0.1 mm 4 mps 738 mmHg 70%
    18:00 +10°C° 0.1 mm 4 mps 738 mmHg 73%
    19:00 +8°C° 0.1 mm 4 mps 738 mmHg 77%
    20:00 +8°C° 0.1 mm 3 mps 738 mmHg 80%
    21:00 +8°C° 0 mm 3 mps 738 mmHg 82%
    22:00 +7°C° 0 mm 3 mps 738 mmHg 83%
    23:00 +7°C° 0 mm 3 mps 738 mmHg 85%

    25 April, Wednesday

    Time Temperature Precipitation Wind Pressure Humidity
    00:00 +5°C° 0 mm 3 mps 738 mmHg 87%
    01:00 +4°C° 0 mm 3 mps 738 mmHg 90%
    02:00 +3°C° 0 mm 3 mps 738 mmHg 93%
    03:00 +4°C° 0 mm 3 mps 738 mmHg 93%
    04:00 +4°C° 0 mm 4 mps 737 mmHg 93%
    05:00 +5°C° 0 mm 4 mps 737 mmHg 93%
    06:00 +6°C° 0.5 mm 4 mps 737 mmHg 91%
    07:00 +6°C° 0.5 mm 5 mps 737 mmHg 90%
    08:00 +7°C° 0.5 mm 5 mps 737 mmHg 88%
    09:00 +8°C° 0.2 mm 6 mps 737 mmHg 83%
    10:00 +9°C° 0.2 mm 6 mps 737 mmHg 77%
    11:00 +10°C° 0.2 mm 6 mps 737 mmHg 72%
    12:00 +9°C° 0.6 mm 6 mps 737 mmHg 75%
    13:00 +9°C° 0.6 mm 5 mps 736 mmHg 79%
    14:00 +9°C° 0.6 mm 5 mps 736 mmHg 82%
    15:00 +9°C° 0.1 mm 5 mps 736 mmHg 83%
    16:00 +9°C° 0.1 mm 5 mps 735 mmHg 85%
    17:00 +10°C° 0.1 mm 4 mps 735 mmHg 86%
    18:00 +10°C° 0.1 mm 4 mps 735 mmHg 86%
    19:00 +8°C° 0.1 mm 4 mps 735 mmHg 86%
    20:00 +7°C° 0.1 mm 4 mps 735 mmHg 87%
    21:00 +6°C° 0 mm 4 mps 735 mmHg 88%
    22:00 +5°C° 0 mm 4 mps 736 mmHg 89%
    23:00 +5°C° 0 mm 3 mps 736 mmHg 90%

    26 April, Thursday

    Time Temperature Precipitation Wind Pressure Humidity
    00:00 +4°C° 0 mm 3 mps 736 mmHg 91%
    01:00 +3°C° 0 mm 3 mps 736 mmHg 92%
    02:00 +4°C° 0 mm 2 mps 736 mmHg 93%
    03:00 +3°C° 0 mm 3 mps 736 mmHg 93%
    04:00 +2°C° 0 mm 3 mps 736 mmHg 94%
    05:00 +2°C° 0 mm 3 mps 736 mmHg 94%
    06:00 +4°C° 0 mm 3 mps 736 mmHg 88%
    07:00 +5°C° 0 mm 4 mps 736 mmHg 82%
    08:00 +6°C° 0 mm 4 mps 736 mmHg 76%
    09:00 +8°C° 0 mm 5 mps 737 mmHg 69%
    10:00 +9°C° 0 mm 5 mps 737 mmHg 62%
    11:00 +11°C° 0 mm 6 mps 737 mmHg 55%
    12:00 +11°C° 0.2 mm 6 mps 737 mmHg 53%
    13:00 +11°C° 0.2 mm 7 mps 737 mmHg 51%
    14:00 +12°C° 0.2 mm 7 mps 738 mmHg 49%
    15:00 +12°C° 0.1 mm 7 mps 738 mmHg 50%
    16:00 +11°C° 0.1 mm 6 mps 738 mmHg 51%
    17:00 +11°C° 0.1 mm 6 mps 739 mmHg 52%
    18:00 +10°C° 0 mm 5 mps 739 mmHg 57%
    19:00 +8°C° 0 mm 4 mps 740 mmHg 62%
    20:00 +8°C° 0 mm 3 mps 740 mmHg 67%
    21:00 +7°C° 0 mm 3 mps 741 mmHg 69%
    22:00 +5°C° 0 mm 3 mps 741 mmHg 71%
    23:00 +5°C° 0 mm 3 mps 741 mmHg 73%
    Show more